Regional Weather Roundup
Issued by NWS

Home | Current Version | Previous Version | Text Only | Print | Product List | Glossary Off
Versions: 1 2 3 4 5 6 7 8 9 10 11 12 13 14 15 16 17 18 19 20 21 22 23 24 25 26 27 28 29 30 31 32 33 34 35 36 37 38 39 40 41 42 43 44 45 46 47 48 49 50

000
ASUS43 KMPX 140501
RWRMN
WEATHER ROUNDUP FOR MINNESOTA
NATIONAL WEATHER SERVICE TWIN CITIES/CHANHASSEN MN
1100 PM CST SAT FEB 13 2016


NOTE: "FAIR" INDICATES FEW OR NO CLOUDS BELOW 12,000 FEET WITH NO
SIGNIFICANT WEATHER AND/OR OBSTRUCTIONS TO VISIBILITY. N/A MEANS
CURRENT SKY AND/OR WEATHER CONDITIONS ARE NOT AVAILABLE.

MNZ060>063-068>070-140600-
   Twin Cities Metro

CITY           SKY/WX    TMP DP  RH WIND       PRES   REMARKS
TWIN CITIES    CLOUDY     7  -7  52 SE10      30.32F WCI  -8
ST PAUL        CLOUDY     8  -5  55 SE13      30.35F WCI  -8
CRYSTAL        CLOUDY     9  -6  50 SE10      30.30F WCI  -5
BLAINE         CLOUDY    10  -6  48 SE12      30.29F WCI  -4
LAKEVILLE      CLOUDY     7  -2  66 SE8       30.30F WCI  -6
EDEN PRAIRIE   CLOUDY     9  -6  50 SE12      30.29F WCI  -6
SOUTH ST PAUL  CLOUDY     8  -7  52 SE8       30.33F WCI  -5
LAKE ELMO      MOCLDY     9  -8  47 SE6       30.33F WCI  -1
$$
MNZ001>005-007-008-013>017-022>024-027-028-140600-
   Northwest Minnesota

CITY           SKY/WX    TMP DP  RH WIND       PRES   REMARKS
BEMIDJI        CLOUDY     5  -7  57 SE10      30.14F WCI -10
HALLOCK        CLOUDY    12   3  67 S22       30.07F WCI  -7
ROSEAU         CLOUDY     9  -4  56 SE14      30.11F WCI  -8
WARROAD        CLOUDY     7  -8  51 SE8       30.13F WCI  -6
THIEF RVR FALL CLOUDY    10  -2  56 SE15G21   30.10F WCI  -6
CROOKSTON      CLOUDY    12   1  62 S20       30.11F WCI  -6
FOSSTON        FLURRIES   9  -6  52 SE15      30.10F WCI  -8
DETROIT LAKES  CLOUDY    10   1  67 SE17G23   30.10F WCI  -7
MOORHEAD       CLOUDY    12   1  62 S25       30.12S WCI  -8
PARK RAPIDS    CLOUDY     8  -7  50 SE15      30.13F WCI  -9
MAHNOMEN       CLOUDY     9  -3  56 SE13G18   30.10F WCI  -6
$$
MNZ006-009>011-018-025>026-140600-
   North Central Minnesota

CITY           SKY/WX    TMP DP  RH WIND       PRES   REMARKS
BAUDETTE       CLOUDY     0 -16  46 SE13      30.15F WCI -18
FLAG ISLAND    CLOUDY    -2 -15  55 SE9       30.15F WCI -18
INTL FALLS     CLOUDY   -11 -18  71 SE7       30.22F WCI -26
WASKISH        CLOUDY     3 -11  51 SE8       30.16F WCI -10
BIG FORK       CLOUDY     1 -15  46 SE5       30.21  WCI  -8
LONGVILLE      CLOUDY     1 -11  55 SE5       30.19F WCI  -8
GRAND RAPIDS   CLOUDY     0 -15  50 SE7       30.21F WCI -13
CRANE LAKE     CLOUDY   -18 -24  76 CALM      30.29F
ORR            CLOUDY    -2 -17  50 CALM      30.22S
COOK           CLOUDY   -17 -20  83 CALM      30.25F
WALKER         CLOUDY     4  -9  53 SE7       30.17F WCI  -8
$$
MNZ012-019>021-037-140600-
   Northeast Minnesota

CITY           SKY/WX    TMP DP  RH WIND       PRES   REMARKS
DULUTH         CLOUDY     0 -14  51 S7        30.27S WCI -13
ELY            CLOUDY   -15 -20  76 SE5       30.26S WCI -27
HIBBING        CLOUDY   -13 -17  82 SE6       30.26S WCI -27
EVELETH        CLOUDY   -17 -24  70 CALM      30.27F
DULUTH HARBOR  CLOUDY     3  -9  55 S6        30.37S WCI  -8
TWO HARBORS    CLOUDY    -6 -15  65 W5        30.29S WCI -17
SILVER BAY     CLOUDY   -11 -17  77 CALM      30.29F
GRAND MARAIS     N/A      4  -3  73 NW6       30.36F WCI  -7
G MARAIS ARPRT FLURRIES -11 -18  70 CALM      30.24F
$$
MNZ029>031-032-039>041-046>048-054>057-064-140600-
   West Central Minnesota

CITY           SKY/WX    TMP DP  RH WIND       PRES   REMARKS
FERGUS FALLS   CLOUDY    10   1  67 S17G26    30.17F WCI  -7
WHEATON        FLURRIES  12   7  79 SE21G29   30.14F WCI  -6
MORRIS         CLOUDY    10   3  72 SE25      30.13F WCI -10
ALEXANDRIA     CLOUDY     9  -1  64 SE17      30.15F WCI  -9
ELBOW LAKE     CLOUDY    10   2  71 SE21G26   30.14F WCI -10
WADENA         CLOUDY     9  -4  56 SE15      30.14F WCI  -8
GLENWOOD       CLOUDY     9   1  72 SE16      30.16F WCI  -9
APPLETON       FLURRIES  12   3  67 SE17G24   30.16F WCI  -5
BENSON         FLURRIES  10   1  67 S16       30.17F WCI  -7
ORTONVILLE     LGT SNOW  10   3  72 SE15G22   30.13F WCI  -6
MADISON        LGT SNOW  12   7  79 SE23      30.16F WCI  -7
WILLMAR        CLOUDY    12   3  67 SE14G22   30.21F WCI  -3
$$
MNZ033>034-036-042>043-049>051-058-059-140600-
   Central Minnesota

CITY           SKY/WX    TMP DP  RH WIND       PRES   REMARKS
ST CLOUD       CLOUDY     9  -5  53 SE17      30.25F WCI  -9
SAUK CENTRE    CLOUDY     8  -1  65 SE15      30.19F WCI  -9
PAYNESVILLE    CLOUDY    10  -1  63 SE13      30.21F WCI  -6
AITKIN         CLOUDY     3 -13  47 SE8       30.22F WCI -10
PINE RIVER     CLOUDY     3  -8  60 SE12      30.21F WCI -13
BRAINERD       CLOUDY     3  -9  57 SE5       30.21F WCI  -6
STAPLES        CLOUDY     7  -6  56 SE9       30.17F WCI  -7
LONG PRAIRIE   CLOUDY     9  -2  61 SE13      30.18F WCI  -7
LITTLE FALLS   CLOUDY    10  -6  48 SE14      30.23F WCI  -5
LITCHFIELD     CLOUDY    10  -2  56 SE10G17   30.23F WCI  -3
BUFFALO        CLOUDY     9  -6  49 SE8       30.28F WCI  -3
MAPLE LAKE     CLOUDY    10  -2  57 SE9       30.27F WCI  -3
$$
MNZ037-044-045-052-053-140600-
   East Central Minnesota

CITY           SKY/WX    TMP DP  RH WIND       PRES   REMARKS
PRINCETON      CLOUDY     9  -6  52 SE8       30.28F WCI  -4
MORA           CLOUDY     1  -9  60 SE5       30.31F WCI  -8
CAMBRIDGE      CLOUDY     9  -6  52 SE6       30.28F WCI  -1
RUSH CITY      CLOUDY     0 -12  57 SE5       30.33F WCI -10
MOOSE LAKE     CLOUDY   -11 -18  70 CALM      30.28F
HINCKLEY       FAIR       1  -9  60 SE3       30.31F
CLOQUET        CLOUDY    -2 -17  50 CALM      30.28F
MCGREGOR       CLOUDY     1  -9  60 SE7       30.26S WCI -11
$$
MNZ071>073-080-081-089-090-097-098-140600-
   Southwest Minnesota

CITY           SKY/WX    TMP DP  RH WIND       PRES   REMARKS
MONTEVIDEO     FLURRIES  10   3  72 S13G21    30.19F WCI  -5
GRANITE FALLS  CLOUDY    13   6  72 SE16G24   30.20F WCI  -3
CANBY          LGT SNOW  14  10  85 E16       30.14F WCI  -2
MARSHALL       FLURRIES  11   5  77 S17       30.15F WCI  -6
REDWOOD FALLS  CLOUDY    11   4  73 SE18      30.22F WCI  -7
OLIVIA         CLOUDY    12   3  67 SE15      30.21F WCI  -4
PIPESTONE      LGT SNOW  12   3  67 SE22G29   30.06F WCI  -7
WINDOM         FLURRIES  10   5  79 SE17      30.17F WCI  -7
WORTHINGTON    CLOUDY     9   3  78 SE20G26   30.13F WCI -11
JACKSON        LGT SNOW  12   5  73 SE16G22   30.18F WCI  -4
TRACY          CLOUDY    12   7  82 S17G25    30.14F WCI  -6
SLAYTON        LGT SNOW   9   8  94 SE21      30.11F WCI -10
$$
MNZ065>067-074>077-082>085-091>093-140600-
   South Central Minnesota

CITY           SKY/WX    TMP DP  RH WIND       PRES   REMARKS
MANKATO        CLOUDY     9   0  66 SE15      30.27F WCI  -8
NEW ULM        CLOUDY     9   0  66 SE15      30.25S WCI  -8
ST JAMES       CLOUDY    10   5  79 SE16G24   30.24F WCI  -7
FAIRMONT       CLOUDY    10   1  67 SE17      30.22F WCI  -7
GLENCOE        CLOUDY    10  -1  61 SE9       30.27F WCI  -3
FARIBAULT      CLOUDY     9  -6  52 SE12      30.30F WCI  -6
OWATONNA       CLOUDY     9  -6  52 SE14      30.28F WCI  -8
WASECA         CLOUDY    10  -2  56 SE13      30.29F WCI  -5
ALBERT LEA     CLOUDY     9  -2  61 SE13      30.27F WCI  -7
$$
MNZ078>079-086>088-094>096-140600-
   Southeast Minnesota

CITY           SKY/WX    TMP DP  RH WIND       PRES   REMARKS
ROCHESTER      CLOUDY     5  -5  63 S10       30.30F WCI -10
RED WING       CLOUDY     9  -9  43 SE8       30.36F WCI  -4
STANTON        CLOUDY    10  -6  49 SE6       30.31F WCI   0
DODGE CENTER   CLOUDY     7  -4  61 S12       30.28F WCI  -9
WINONA         CLOUDY     5  -4  66 CALM      30.41F
AUSTIN         CLOUDY     7  -2  66 SE9       30.30F WCI  -7
PRESTON        CLOUDY     3  -9  57 S3        30.33F
$$
ABBREVIATIONS USED IN REMARKS
   TC - TEMPERATURES IN CELSIUS
  WCI - WIND CHILL INDEX
   HX - HEAT INDEX
  VSB - VISIBILITY
$$



USA.gov is the U.S. government's official web portal to all federal, state and local government web resources and services.